Location: Sungai Bunut
(2.6333°N, 113.7333°E)
Time: 10:19:09
(UTC+00:00)

A-11 Canister half - Pass Details

Date: 08 December 2023
Orbit: 1526 x 1682 km, 47.3° (Epoch: 04 March)

Event Time Altitude Azimuth Distance (km) Brightness Sun altitude
Exits shadow 19:49:12 67° 228° (SW) 1,664 8.9 -34.9°
Drops below altitude 10° 19:58:23 10° 150° (SSE) 3,701 11.6 -32.8°
Sets 20:01:26 0° 147° (SSE) 4,677 12.3 -32.1°
